Location: La Fredeussais
(48.1780°N, 1.3980°W)
Time: 18:41:13
(UTC+00:00)

SL-08 R/B - Pass Details

Date: 09 May 2021
Orbit: 951 x 1018 km, 82.9° (Epoch: 15 June)

Event Time Altitude Azimuth Distance (km) Brightness Sun altitude
Rises 23:37:08 0° 351° (N) 3,654 8.9 -24.0°
Reaches altitude 10° 23:39:38 10° 353° (N) 2,711 7.9 -24.0°
Maximum altitude 23:45:51 81° 80° (E) 993 4.4 -24.1°
Enters shadow 23:47:31 52° 159° (SSE) 1,204 4.6 -24.1°
